Loisir ou Compétition : Rejoignez un Club de la Fédération

Résultats

GRAND PRIX D'AGY

AGY

FS Hommes

Jury de Compétition

Délégué Technique :
PERRILLAT JOEL (MB)
D.T. Adjoint :
 
Dir. Epreuve :
PETIT MICHEL ()

Caractéristiques de la Piste

Piste :
 
Distance :
5 km
Point Haut :
 
Point Bas :
 
Montée Tot. :
 
Montée Max. :
 
Homologation :
 

Pénalité Appliquée :
 
Coefficient :
 

Catégorie :
MIN
Style :
L

04/03/06 - FMBM0361

CltDosClt/CatCodeAnNom PrénomComClubTempsEcartPoints
1561/MINFFS22942811992VERNEY CHARLYMBSC GD BORNAN17:02.700:00.0
2722/MINFFS26239571992VERNAZ PIEMONT JULIENMBSC ABONDANCE17:46.900:44.2
3523/MINFFS26132131992PERRILLAT LUCMBSC GD BORNAN18:21.801:19.1
4784/MINFFS23245301992AGNELLET GERARDMBCS LA CLUSAZ18:38.301:35.6
5775/MINFFS26029981993VIEVILLE NICOLASMBLES HOUCHES19:15.602:12.9
6416/MINFFS26132121992MISSILLIER QUENTINMBSC GD BORNAN19:21.302:18.6
7457/MINFFS26132161992PESSEY OSCARMBSC GD BORNAN19:37.102:34.4
8678/MINFFS26219611993BITON GUILLAUMEMBVILLARD/BOEG19:43.302:40.6
9759/MINFFS26218741993PHILIPOT MICKAELMBSCNP ROCHOIS19:50.202:47.5
105710/MINFFS26140691992CLAUDON MAXIMEMBCS CHAMONIX19:54.402:51.7
117911/MINFFS26215931993CHESNAIS ROMAINMBSC GD BORNAN19:59.802:57.1
125512/MINFFS26155361992PRONNIER DAMIENMBSC GD BORNAN20:03.503:00.8
134613/MINFFS26140661992VOUILLAMOZ SYLVAINMBCS CHAMONIX20:04.303:01.6
147414/MINFFS23544771993EKSTEROWICZ GAETANMBCS LA CLUSAZ20:14.603:11.9
154915/MINFFS23538891992JACOB VALENTINMBSCNP ROCHOIS20:21.203:18.5
168016/MINFFS26169381992COUDURIER JULIENMBNORD.TANINGE20:42.003:39.3
175117/MINFFS26047311992DEWAELE ROMAINMBLES GETS S.C20:50.003:47.3
186318/MINFFS26185861993AGNELLET GEOFFREYMBCS LA CLUSAZ20:54.903:52.2
194719/MINFFS26134321992MENOLI JONATHANMBSC D'AGY20:58.503:55.8
207120/MINFFS26060141993PAIS VICTORMBLES GETS S.C21:02.603:59.9
214821/MINFFS23240351992SIMKO PABLOMBLES HOUCHES21:10.404:07.7
226822/MINFFS26258181993BEAUBEAU RUFINMBVILLARD/BOEG21:25.804:23.1
234223/MINFFS23539561993LE GOUIL KEVINMBDRAGONS ANNY21:49.104:46.4
247024/MINFFS26258241993HANQUIER MAXIMEMBVILLARD/BOEG21:59.004:56.3
255825/MINFFS26220071993MARSURA JEREMYMBSC MIEUSSY22:08.805:06.1
266026/MINFFS26218771993ANDRE KEVINMBSCNP ROCHOIS22:09.905:07.2
274327/MINFFS23535231992MATTEL GERALDMBSC CONTAMINE22:18.705:16.0
286628/MINFFS26240181993DOCHE BAPTISTEMBDRAGONS ANNY22:24.405:21.7
295429/MINFFS26199981993AMARAL MARCMBVILLARD/BOEG22:24.505:21.8
306530/MINFFS26183071993GOY KILIANMBCS LA CLUSAZ22:46.705:44.0
317331/MINFFS23544831993COUDER THEOMBCS LA CLUSAZ23:11.406:08.7
325032/MINFFS26057391993CUNY NICOLASMBSCNP ROCHOIS23:14.206:11.5
338133/MINFFS26200301993NEAU ARTHURMBVILLARD/BOEG23:18.706:16.0
345934/MINFFS23519491992BRUAND GUILLAUMEMBSALLANCHES23:24.306:21.6
358235/MINFFS26231331993SUIZE THOMASMBSC GD BORNAN23:39.606:36.9
366936/MINFFS26176921993LE BERRE MARTINMBCS MEGEVE23:45.906:43.2
374437/MINFFS26136921993BRON JOSSMBLES GETS S.C23:51.306:48.6
386238/MINFFS23234491993CHOUPIN PIERREMBLES HOUCHES23:52.506:49.8
396439/MINFFS26295351993PESCHOT GUILLAUMEMBDRAGONS ANNY24:27.107:24.4
Non partants
53FFS26228961993WILLIG CLEMENTMBSC GD BORNAN
61FFS26205831993DUMONT CLEMENTMBCS CHAMONIX